Home > Weather > Topeka > Past weeks

Flag for U.S.A. Weather for the Past 2 Weeks in Topeka, Kansas, U.S.A.

Now
24 °F

Overcast.


Feels Like: 20 °F
Forecast: 22 / 52 °F
Wind: 3 mph from Northwest

Location: Philip Billard Municipal Airport

Current Time: Feb 10, 2016 at 1:04:25 AM

Latest Report: Feb 9, 2016 at 11:53 PM


Visibility: 10 mi

Pressure: 30.30 "Hg

Humidity: 60%

Dew point: 12 °F

Location of TopekaLocation

Historic Weather in Topeka — Graph

°F

Topeka Temperature Yesterday

Maximum temperature yesterday: 33 °F (at 12:53 AM)
Minimum temperature yesterday: 24 °F (at 6:53 AM)
Average temperature yesterday: 28 °F

High & Low Weather Summary for the Past Weeks

 TemperatureHumidityPressure
High67 °F (Jan 29, 2:53 PM)93% (Feb 2, 6:53 AM)30.45 "Hg (Feb 2, 6:53 AM)
Low19 °F (Feb 4, 2:53 AM)18% (Feb 7, 3:53 PM)29.34 "Hg (Feb 2, 1:53 PM)
Average37 °F61%30.03 "Hg
* Reported Jan 25 11:53 PM — Feb 9 11:53 PM, Topeka, Weather by CustomWeather, © 2016

Note: Actual official high and low records may vary slightly from our data, if they occured in-between our weather recording intervals... More about our weather records

Advertising

Topeka Weather History for the Previous 24 Hours

 ConditionsComfort  
Time TempWeatherWind HumidityBarometerVisibility
11:53 PM
Tue, Feb 9
24 °FOvercast.3 mph60%30.30 "Hg10 mi
10:53 PM24 °FPassing clouds.6 mph57%30.31 "Hg10 mi
9:53 PM24 °FClear.5 mph52%30.32 "Hg10 mi
8:53 PM25 °FClear.6 mph50%30.32 "Hg10 mi
7:53 PM25 °FPassing clouds.6 mph46%30.33 "Hg10 mi
6:53 PM26 °FPassing clouds.8 mph44%30.33 "Hg10 mi
5:53 PM27 °FClear.13 mph39%30.32 "Hg10 mi
4:53 PM30 °FSunny.18 mph31%30.31 "Hg10 mi
3:53 PM30 °FSunny.23 mph29%30.29 "Hg10 mi
2:53 PM31 °FSunny.18 mph29%30.27 "Hg10 mi
1:53 PM32 °FSunny.22 mph26%30.27 "Hg10 mi
12:53 PM32 °FSunny.24 mph29%30.26 "Hg10 mi
11:53 AM30 °FSunny.24 mph30%30.28 "Hg10 mi
10:53 AM28 °FSunny.23 mph34%30.27 "Hg10 mi
9:53 AM27 °FSunny.22 mph39%30.25 "Hg10 mi
8:53 AM26 °FSunny.21 mph48%30.22 "Hg10 mi
7:53 AM24 °FSunny.17 mph52%30.21 "Hg10 mi
6:53 AM24 °FClear.23 mph48%30.19 "Hg10 mi
5:53 AM26 °FClear.22 mph48%30.16 "Hg10 mi
4:53 AM28 °FClear.17 mph47%30.14 "Hg10 mi
3:53 AM30 °FClear.18 mph54%30.11 "Hg10 mi
2:53 AM31 °FPassing clouds.13 mph61%30.11 "Hg10 mi
1:53 AM33 °FPartly cloudy.17 mph56%30.11 "Hg10 mi
Weather by CustomWeather, © 2016

See weather overviewHow to use our weather pages